owner,sensor,date,latitude,longitude,vertical_datum,direction_of_sea_water_velocity,sea_water_speed,upward_sea_water_velocity,qcFlag 
ADCP,ioos:station:wmo:42862:1,2014-12-01T01:08:00Z,27.5700,-92.3960,66.1,16.0,48.1,-2.6,'1111122,1111122,1111122' 
ADCP,ioos:station:wmo:42862:1,2014-12-01T02:08:00Z,27.5700,-92.3960,66.1,6.0,52.9,-5.4,'1111122,1111122,1111122' 
ADCP,ioos:station:wmo:42862:1,2014-12-01T03:08:00Z,27.5700,-92.3960,66.1,16.0,69.1,-4.0,'1111122,1111122,1111122' 
ADCP,ioos:station:wmo:42862:1,2014-12-01T04:08:00Z,27.5700,-92.3960,66.1,24.0,74.3,1.8,'1111122,1111122,1111122' 
ADCP,ioos:station:wmo:42862:1,2014-12-01T05:08:00Z,27.5700,-92.3960,66.1,19.0,68.3,0.2,'1111122,1111122,1111122' 
ADCP,ioos:station:wmo:42862:1,2014-12-01T06:08:00Z,27.5700,-92.3960,66.1,10.0,63.4,-2.4,'1111122,1111122,1111122' 
ADCP,ioos:station:wmo:42862:1,2014-12-01T07:08:00Z,27.5700,-92.3960,66.1,16.0,61.5,-2.9,'1111122,1111122,1111122' 
ADCP,ioos:station:wmo:42862:1,2014-12-01T08:08:00Z,27.5700,-92.3960,66.1,23.0,58.4,-4.1,'1111122,1111122,1111122' 
ADCP,ioos:station:wmo:42862:1,2014-12-01T09:08:00Z,27.5700,-92.3960,66.1,23.0,69.6,-1.6,'1111122,1111122,1111122' 
ADCP,ioos:station:wmo:42862:1,2014-12-01T10:08:00Z,27.5700,-92.3960,66.1,26.0,76.7,1.5,'1111122,1111122,1111122' 
ADCP,ioos:station:wmo:42862:1,2014-12-01T11:08:00Z,27.5700,-92.3960,66.1,30.0,78.2,2.0,'1111122,1111122,1111122' 
ADCP,ioos:station:wmo:42862:1,2014-12-01T12:08:00Z,27.5700,-92.3960,66.1,33.0,81.8,-0.3,'1111122,1111122,1111122' 
ADCP,ioos:station:wmo:42862:1,2014-12-01T18:08:00Z,27.5700,-92.3960,66.1,27.0,73.7,-2.3,'1111122,1111122,1111122' 
ADCP,ioos:station:wmo:42862:1,2014-12-01T19:08:00Z,27.5700,-92.3960,66.1,21.0,72.5,-0.5,'1111122,1111122,1111122' 
ADCP,ioos:station:wmo:42862:1,2014-12-01T20:08:00Z,27.5700,-92.3960,66.1,26.0,72.0,-0.1,'1111122,1111122,1111122' 
ADCP,ioos:station:wmo:42862:1,2014-12-01T21:08:00Z,27.5700,-92.3960,66.1,27.0,69.2,-0.1,'1111122,1111122,1111122' 
ADCP,ioos:station:wmo:42862:1,2014-12-01T23:08:00Z,27.5700,-92.3960,66.1,25.0,70.0,-3.9,'1111122,1111122,1111122' 
ADCP,ioos:station:wmo:42862:1,2014-12-02T00:08:00Z,27.5700,-92.3960,66.1,21.0,78.2,-0.5,'1111122,1111122,1111122' 
ADCP,ioos:station:wmo:42862:1,2014-12-02T01:08:00Z,27.5700,-92.3960,66.1,11.0,76.9,-1.8,'1111122,1111122,1111122' 
ADCP,ioos:station:wmo:42862:1,2014-12-02T02:08:00Z,27.5700,-92.3960,66.1,9.0,82.9,-2.4,'1111122,1111122,1111122' 
ADCP,ioos:station:wmo:42862:1,2014-12-02T03:08:00Z,27.5700,-92.3960,66.1,14.0,76.9,-0.1,'1111122,1111122,1111122' 
ADCP,ioos:station:wmo:42862:1,2014-12-02T04:08:00Z,27.5700,-92.3960,66.1,29.0,71.4,-3.3,'1111122,1111122,1111122' 
ADCP,ioos:station:wmo:42862:1,2014-12-02T05:08:00Z,27.5700,-92.3960,66.1,31.0,72.3,-4.4,'1111122,1111122,1111122' 
ADCP,ioos:station:wmo:42862:1,2014-12-02T06:08:00Z,27.5700,-92.3960,66.1,28.0,66.0,-3.2,'1111122,1111122,1111122' 
ADCP,ioos:station:wmo:42862:1,2014-12-02T07:08:00Z,27.5700,-92.3960,66.1,28.0,71.5,0.1,'1111122,1111122,1111122' 
ADCP,ioos:station:wmo:42862:1,2014-12-02T08:08:00Z,27.5700,-92.3960,66.1,29.0,64.1,-3.0,'1111122,1111122,1111122' 
ADCP,ioos:station:wmo:42862:1,2014-12-02T09:08:00Z,27.5700,-92.3960,66.1,32.0,63.6,-1.4,'1111122,1111122,1111122' 
ADCP,ioos:station:wmo:42862:1,2014-12-02T10:08:00Z,27.5700,-92.3960,66.1,29.0,63.6,-2.6,'1111122,1111122,1111122' 
ADCP,ioos:station:wmo:42862:1,2014-12-02T10:28:00Z,27.5700,-92.3960,66.1,27.0,66.0,-1.5,'1111122,1111122,1111122' 
ADCP,ioos:station:wmo:42862:1,2014-12-02T11:58:00Z,27.5700,-92.3960,66.1,26.0,67.8,1.0,'1111122,1111122,1111122' 
ADCP,ioos:station:wmo:42862:1,2014-12-02T21:18:00Z,27.5700,-92.3960,66.1,37.0,72.6,-1.4,'1111122,1111122,1111122' 
ADCP,ioos:station:wmo:42862:1,2014-12-05T15:18:00Z,27.5700,-92.3960,66.1,29.0,74.5,-2.3,'1111122,1111122,1111122' 
ADCP,ioos:station:wmo:42862:1,2014-12-08T18:18:00Z,27.5700,-92.3960,66.1,49.0,81.2,-2.9,'1111122,1111122,1111122' 
ADCP,ioos:station:wmo:42862:1,2014-12-08T21:08:00Z,27.5700,-92.3960,66.1,52.0,79.9,-1.8,'1111122,1111122,1111122' 
ADCP,ioos:station:wmo:42862:1,2014-12-08T22:08:00Z,27.5700,-92.3960,66.1,54.0,80.1,-1.2,'1111122,1111122,1111122' 
ADCP,ioos:station:wmo:42862:1,2014-12-08T23:08:00Z,27.5700,-92.3960,66.1,57.0,82.7,-3.6,'1111122,1111122,1111122' 
ADCP,ioos:station:wmo:42862:1,2014-12-09T00:08:00Z,27.5700,-92.3960,66.1,57.0,84.5,-0.8,'1111122,1111122,1111122' 
ADCP,ioos:station:wmo:42862:1,2014-12-09T01:08:00Z,27.5700,-92.3960,66.1,57.0,84.5,-3.1,'1111122,1111122,1111122' 
ADCP,ioos:station:wmo:42862:1,2014-12-09T03:08:00Z,27.5700,-92.3960,66.1,56.0,81.8,-3.0,'1111122,1111122,1111122' 
ADCP,ioos:station:wmo:42862:1,2014-12-09T04:08:00Z,27.5700,-92.3960,66.1,56.0,78.7,-2.9,'1111122,1111122,1111122' 
ADCP,ioos:station:wmo:42862:1,2014-12-09T05:08:00Z,27.5700,-92.3960,66.1,54.0,74.8,-0.2,'1111122,1111122,1111122' 
ADCP,ioos:station:wmo:42862:1,2014-12-09T06:08:00Z,27.5700,-92.3960,66.1,55.0,72.7,-0.3,'1111122,1111122,1111122' 
ADCP,ioos:station:wmo:42862:1,2014-12-09T07:08:00Z,27.5700,-92.3960,66.1,55.0,66.4,-0.8,'1111122,1111122,1111122' 
ADCP,ioos:station:wmo:42862:1,2014-12-09T08:08:00Z,27.5700,-92.3960,66.1,53.0,64.0,-1.6,'1111122,1111122,1111122' 
ADCP,ioos:station:wmo:42862:1,2014-12-09T08:58:00Z,27.5700,-92.3960,66.1,54.0,61.8,0.2,'1111122,1111122,1111122' 
ADCP,ioos:station:wmo:42862:1,2014-12-09T10:18:00Z,27.5700,-92.3960,66.1,54.0,57.3,2.2,'1111122,1111122,1111122' 
ADCP,ioos:station:wmo:42862:1,2014-12-10T03:08:00Z,27.5700,-92.3960,66.1,56.0,73.1,-2.3,'1111122,1111122,1111122' 
ADCP,ioos:station:wmo:42862:1,2014-12-10T04:08:00Z,27.5700,-92.3960,66.1,56.0,73.6,0.1,'1111122,1111122,1111122' 
ADCP,ioos:station:wmo:42862:1,2014-12-10T05:08:00Z,27.5700,-92.3960,66.1,57.0,64.8,-3.1,'1111122,1111122,1111122' 
ADCP,ioos:station:wmo:42862:1,2014-12-10T06:08:00Z,27.5700,-92.3960,66.1,58.0,63.8,-3.5,'1111122,1111122,1111122' 
ADCP,ioos:station:wmo:42862:1,2014-12-10T07:08:00Z,27.5700,-92.3960,66.1,62.0,62.8,-4.6,'1111122,1111122,1111122' 
ADCP,ioos:station:wmo:42862:1,2014-12-10T08:08:00Z,27.5700,-92.3960,66.1,61.0,61.8,-3.2,'1111122,1111122,1111122' 
ADCP,ioos:station:wmo:42862:1,2014-12-10T09:08:00Z,27.5700,-92.3960,66.1,63.0,66.3,-1.9,'1111122,1111122,1111122' 
ADCP,ioos:station:wmo:42862:1,2014-12-10T10:08:00Z,27.5700,-92.3960,66.1,66.0,63.0,-1.4,'1111122,1111122,1111122' 
ADCP,ioos:station:wmo:42862:1,2014-12-10T11:08:00Z,27.5700,-92.3960,66.1,66.0,63.3,-1.9,'1111122,1111122,1111122' 
ADCP,ioos:station:wmo:42862:1,2014-12-10T12:08:00Z,27.5700,-92.3960,66.1,64.0,60.8,-3.1,'1111122,1111122,1111122' 
ADCP,ioos:station:wmo:42862:1,2014-12-10T13:08:00Z,27.5700,-92.3960,66.1,60.0,63.3,-2.2,'1111122,1111122,1111122' 
ADCP,ioos:station:wmo:42862:1,2014-12-10T15:08:00Z,27.5700,-92.3960,66.1,59.0,62.2,-3.3,'1111122,1111122,1111122' 
ADCP,ioos:station:wmo:42862:1,2014-12-10T17:08:00Z,27.5700,-92.3960,66.1,56.0,69.8,-2.0,'1111122,1111122,1111122' 
ADCP,ioos:station:wmo:42862:1,2014-12-10T19:08:00Z,27.5700,-92.3960,66.1,56.0,71.2,-1.3,'1111122,1111122,1111122' 
ADCP,ioos:station:wmo:42862:1,2014-12-10T20:08:00Z,27.5700,-92.3960,66.1,58.0,74.7,-1.0,'1111122,1111122,1111122' 
ADCP,ioos:station:wmo:42862:1,2014-12-10T21:08:00Z,27.5700,-92.3960,66.1,56.0,74.4,-0.9,'1111122,1111122,1111122' 
ADCP,ioos:station:wmo:42862:1,2014-12-10T23:08:00Z,27.5700,-92.3960,66.1,60.0,63.1,-8.2,'1111122,1111122,1111122' 
ADCP,ioos:station:wmo:42862:1,2014-12-11T00:08:00Z,27.5700,-92.3960,66.1,62.0,65.0,-7.6,'1111122,1111122,1111122' 
ADCP,ioos:station:wmo:42862:1,2014-12-11T01:08:00Z,27.5700,-92.3960,66.1,62.0,61.0,-6.2,'1111122,1111122,1111122' 
ADCP,ioos:station:wmo:42862:1,2014-12-11T02:08:00Z,27.5700,-92.3960,66.1,62.0,61.5,-5.9,'1111122,1111122,1111122' 
ADCP,ioos:station:wmo:42862:1,2014-12-11T03:08:00Z,27.5700,-92.3960,66.1,64.0,66.5,-2.7,'1111122,1111122,1111122' 
ADCP,ioos:station:wmo:42862:1,2014-12-11T04:08:00Z,27.5700,-92.3960,66.1,64.0,72.5,-0.8,'1111122,1111122,1111122' 
ADCP,ioos:station:wmo:42862:1,2014-12-11T05:08:00Z,27.5700,-92.3960,66.1,63.0,72.3,-0.4,'1111122,1111122,1111122' 
ADCP,ioos:station:wmo:42862:1,2014-12-11T07:08:00Z,27.5700,-92.3960,66.1,64.0,70.0,0.7,'1111122,1111122,1111122' 
ADCP,ioos:station:wmo:42862:1,2014-12-11T08:58:00Z,27.5700,-92.3960,66.1,65.0,71.9,0.1,'1111122,1111122,1111122' 
ADCP,ioos:station:wmo:42862:1,2014-12-11T09:48:00Z,27.5700,-92.3960,66.1,66.0,73.6,0.9,'1111122,1111122,1111122' 
ADCP,ioos:station:wmo:42862:1,2014-12-12T02:58:00Z,27.5700,-92.3960,66.1,58.0,84.5,-2.4,'1111122,1111122,1111122' 
ADCP,ioos:station:wmo:42862:1,2014-12-12T04:08:00Z,27.5700,-92.3960,66.1,61.0,84.0,-1.8,'1111122,1111122,1111122' 
ADCP,ioos:station:wmo:42862:1,2014-12-12T05:08:00Z,27.5700,-92.3960,66.1,78.0,75.5,-0.9,'1111122,1111122,1111122' 
ADCP,ioos:station:wmo:42862:1,2014-12-12T06:28:00Z,27.5700,-92.3960,66.1,72.0,79.3,-2.5,'1111122,1111122,1111122' 
ADCP,ioos:station:wmo:42862:1,2014-12-12T07:08:00Z,27.5700,-92.3960,66.1,71.0,76.6,-1.4,'1111122,1111122,1111122' 
ADCP,ioos:station:wmo:42862:1,2014-12-12T08:08:00Z,27.5700,-92.3960,66.1,71.0,77.5,-0.3,'1111122,1111122,1111122' 
ADCP,ioos:station:wmo:42862:1,2014-12-12T09:28:00Z,27.5700,-92.3960,66.1,73.0,83.8,-0.1,'1111122,1111122,1111122' 
ADCP,ioos:station:wmo:42862:1,2014-12-12T10:28:00Z,27.5700,-92.3960,66.1,75.0,80.6,0.7,'1111122,1111122,1111122' 
ADCP,ioos:station:wmo:42862:1,2014-12-12T11:08:00Z,27.5700,-92.3960,66.1,74.0,79.6,0.5,'1111122,1111122,1111122' 
ADCP,ioos:station:wmo:42862:1,2014-12-12T12:08:00Z,27.5700,-92.3960,66.1,74.0,76.6,-2.8,'1111122,1111122,1111122' 
ADCP,ioos:station:wmo:42862:1,2014-12-12T13:08:00Z,27.5700,-92.3960,66.1,75.0,73.5,-3.7,'1111122,1111122,1111122' 
ADCP,ioos:station:wmo:42862:1,2014-12-12T13:48:00Z,27.5700,-92.3960,66.1,76.0,71.7,-3.5,'1111122,1111122,1111122' 
ADCP,ioos:station:wmo:42862:1,2014-12-12T15:08:00Z,27.5700,-92.3960,66.1,76.0,68.4,-4.0,'1111122,1111122,1111122' 
ADCP,ioos:station:wmo:42862:1,2014-12-12T17:28:00Z,27.5700,-92.3960,66.1,72.0,58.7,-5.1,'1111122,1111122,1111122' 
ADCP,ioos:station:wmo:42862:1,2014-12-12T18:28:00Z,27.5700,-92.3960,66.1,67.0,59.7,-7.7,'1111122,1111122,1111122' 
ADCP,ioos:station:wmo:42862:1,2014-12-12T19:28:00Z,27.5700,-92.3960,66.1,65.0,62.0,-6.1,'1111122,1111122,1111122' 
ADCP,ioos:station:wmo:42862:1,2014-12-12T20:28:00Z,27.5700,-92.3960,66.1,68.0,61.3,-5.8,'1111122,1111122,1111122' 
ADCP,ioos:station:wmo:42862:1,2014-12-12T21:08:00Z,27.5700,-92.3960,66.1,63.0,58.6,-6.0,'1111122,1111122,1111122' 
ADCP,ioos:station:wmo:42862:1,2014-12-12T22:08:00Z,27.5700,-92.3960,66.1,62.0,57.6,-1.5,'1111122,1111122,1111122' 
ADCP,ioos:station:wmo:42862:1,2014-12-12T23:08:00Z,27.5700,-92.3960,66.1,65.0,60.0,-3.2,'1111122,1111122,1111122' 
ADCP,ioos:station:wmo:42862:1,2014-12-13T01:08:00Z,27.5700,-92.3960,66.1,71.0,63.6,-1.2,'1111122,1111122,1111122' 
ADCP,ioos:station:wmo:42862:1,2014-12-13T02:08:00Z,27.5700,-92.3960,66.1,67.0,61.6,-1.4,'1111122,1111122,1111122' 
ADCP,ioos:station:wmo:42862:1,2014-12-13T04:08:00Z,27.5700,-92.3960,66.1,63.0,55.7,-2.2,'1111122,1111122,1111122' 
ADCP,ioos:station:wmo:42862:1,2014-12-13T05:08:00Z,27.5700,-92.3960,66.1,57.0,53.5,-0.8,'1111122,1111122,1111122' 
ADCP,ioos:station:wmo:42862:1,2014-12-13T07:04:00Z,27.5700,-92.3960,66.1,59.0,57.7,-2.5,'1111122,1111122,1111122' 
ADCP,ioos:station:wmo:42862:1,2014-12-13T08:04:00Z,27.5700,-92.3960,66.1,65.0,54.6,-0.7,'1111122,1111122,1111122' 
ADCP,ioos:station:wmo:42862:1,2014-12-13T09:04:00Z,27.5700,-92.3960,66.1,59.0,52.7,-0.6,'1111122,1111122,1111122' 
ADCP,ioos:station:wmo:42862:1,2014-12-13T10:04:00Z,27.5700,-92.3960,66.1,67.0,49.5,0.0,'1111122,1111122,1114422' 
ADCP,ioos:station:wmo:42862:1,2014-12-13T11:04:00Z,27.5700,-92.3960,66.1,72.0,47.7,-0.6,'1111122,1111122,1111122' 
ADCP,ioos:station:wmo:42862:1,2014-12-13T12:04:00Z,27.5700,-92.3960,66.1,67.0,48.3,-3.2,'1111122,1111122,1111122' 
ADCP,ioos:station:wmo:42862:1,2014-12-13T13:04:00Z,27.5700,-92.3960,66.1,68.0,50.6,-3.9,'1111122,1111122,1111122' 
ADCP,ioos:station:wmo:42862:1,2014-12-13T13:44:00Z,27.5700,-92.3960,66.1,68.0,55.2,-3.5,'1111122,1111122,1111122' 
ADCP,ioos:station:wmo:42862:1,2014-12-13T16:04:00Z,27.5700,-92.3960,66.1,68.0,58.6,-2.9,'1111122,1111122,1111122' 
ADCP,ioos:station:wmo:42862:1,2014-12-13T17:04:00Z,27.5700,-92.3960,66.1,58.0,55.4,-3.0,'1111122,1111122,1111122' 
ADCP,ioos:station:wmo:42862:1,2014-12-13T18:04:00Z,27.5700,-92.3960,66.1,70.0,62.8,-3.1,'1111122,1111122,1111122' 
ADCP,ioos:station:wmo:42862:1,2014-12-13T19:04:00Z,27.5700,-92.3960,66.1,70.0,57.2,-2.6,'1111122,1111122,1111122' 
ADCP,ioos:station:wmo:42862:1,2014-12-13T20:04:00Z,27.5700,-92.3960,66.1,70.0,55.9,-4.1,'1111122,1111122,1111122' 
ADCP,ioos:station:wmo:42862:1,2014-12-13T21:04:00Z,27.5700,-92.3960,66.1,74.0,54.4,-5.8,'1111122,1111122,1111122' 
ADCP,ioos:station:wmo:42862:1,2014-12-13T22:04:00Z,27.5700,-92.3960,66.1,74.0,53.6,-2.2,'1111122,1111122,1111122' 
ADCP,ioos:station:wmo:42862:1,2014-12-13T23:04:00Z,27.5700,-92.3960,66.1,75.0,56.5,-4.5,'1111122,1111122,1111122' 
ADCP,ioos:station:wmo:42862:1,2014-12-14T00:04:00Z,27.5700,-92.3960,66.1,72.0,55.5,-3.1,'1111122,1111122,1111122' 
ADCP,ioos:station:wmo:42862:1,2014-12-14T01:04:00Z,27.5700,-92.3960,66.1,74.0,58.6,-3.2,'1111122,1111122,1111122' 
ADCP,ioos:station:wmo:42862:1,2014-12-14T02:24:00Z,27.5700,-92.3960,66.1,73.0,57.7,-2.4,'1111122,1111122,1111122' 
ADCP,ioos:station:wmo:42862:1,2014-12-14T02:54:00Z,27.5700,-92.3960,66.1,73.0,56.8,-2.6,'1111122,1111122,1111122' 
ADCP,ioos:station:wmo:42862:1,2014-12-14T04:04:00Z,27.5700,-92.3960,66.1,79.0,61.7,-3.8,'1111122,1111122,1111122' 
ADCP,ioos:station:wmo:42862:1,2014-12-14T05:04:00Z,27.5700,-92.3960,66.1,77.0,61.4,-2.2,'1111122,1111122,1111122' 
ADCP,ioos:station:wmo:42862:1,2014-12-14T05:54:00Z,27.5700,-92.3960,66.1,78.0,64.6,-2.5,'1111122,1111122,1111122' 
ADCP,ioos:station:wmo:42862:1,2014-12-14T07:04:00Z,27.5700,-92.3960,66.1,79.0,64.9,-2.0,'1111122,1111122,1111122' 
ADCP,ioos:station:wmo:42862:1,2014-12-14T08:04:00Z,27.5700,-92.3960,66.1,79.0,66.1,-1.3,'1111122,1111122,1111122' 
ADCP,ioos:station:wmo:42862:1,2014-12-14T09:04:00Z,27.5700,-92.3960,66.1,80.0,68.6,-1.4,'1111122,1111122,1111122' 
ADCP,ioos:station:wmo:42862:1,2014-12-14T10:04:00Z,27.5700,-92.3960,66.1,84.0,67.2,-1.3,'1111122,1111122,1111122' 
ADCP,ioos:station:wmo:42862:1,2014-12-14T11:04:00Z,27.5700,-92.3960,66.1,81.0,68.7,-0.9,'1111122,1111122,1111122' 
ADCP,ioos:station:wmo:42862:1,2014-12-14T12:04:00Z,27.5700,-92.3960,66.1,81.0,71.7,-3.1,'1111122,1111122,1111122' 
ADCP,ioos:station:wmo:42862:1,2014-12-14T13:04:00Z,27.5700,-92.3960,66.1,82.0,68.6,-3.3,'1111122,1111122,1111122' 
ADCP,ioos:station:wmo:42862:1,2014-12-14T13:44:00Z,27.5700,-92.3960,66.1,83.0,65.3,-1.5,'1111122,1111122,1111122' 
ADCP,ioos:station:wmo:42862:1,2014-12-14T15:04:00Z,27.5700,-92.3960,66.1,80.0,59.2,-0.6,'1111122,1111122,1111122' 
ADCP,ioos:station:wmo:42862:1,2014-12-14T16:04:00Z,27.5700,-92.3960,66.1,91.0,64.1,-2.1,'1111122,1111122,1111122' 
ADCP,ioos:station:wmo:42862:1,2014-12-14T17:04:00Z,27.5700,-92.3960,66.1,93.0,57.0,-4.4,'1111122,1111122,1111122' 
ADCP,ioos:station:wmo:42862:1,2014-12-14T18:04:00Z,27.5700,-92.3960,66.1,89.0,52.1,-5.7,'1111122,1111122,1111122' 
ADCP,ioos:station:wmo:42862:1,2014-12-14T20:04:00Z,27.5700,-92.3960,66.1,75.0,55.1,-4.0,'1111122,1111122,1111122' 
ADCP,ioos:station:wmo:42862:1,2014-12-14T22:24:00Z,27.5700,-92.3960,66.1,84.0,54.1,-3.5,'1111122,1111122,1111122' 
ADCP,ioos:station:wmo:42862:1,2014-12-14T23:04:00Z,27.5700,-92.3960,66.1,79.0,54.7,-3.5,'1111122,1111122,1111122' 
ADCP,ioos:station:wmo:42862:1,2014-12-15T00:04:00Z,27.5700,-92.3960,66.1,81.0,56.7,-4.1,'1111122,1111122,1111122' 
ADCP,ioos:station:wmo:42862:1,2014-12-15T01:04:00Z,27.5700,-92.3960,66.1,81.0,58.6,-6.5,'1111122,1111122,1111122' 
ADCP,ioos:station:wmo:42862:1,2014-12-15T02:04:00Z,27.5700,-92.3960,66.1,77.0,59.1,-2.7,'1111122,1111122,1111122' 
ADCP,ioos:station:wmo:42862:1,2014-12-15T03:04:00Z,27.5700,-92.3960,66.1,76.0,60.5,-3.0,'1111122,1111122,1111122' 
ADCP,ioos:station:wmo:42862:1,2014-12-15T05:04:00Z,27.5700,-92.3960,66.1,80.0,59.9,-3.3,'1111122,1111122,1111122' 
ADCP,ioos:station:wmo:42862:1,2014-12-15T08:04:00Z,27.5700,-92.3960,66.1,75.0,58.5,-2.7,'1111122,1111122,1111122' 
ADCP,ioos:station:wmo:42862:1,2014-12-15T09:04:00Z,27.5700,-92.3960,66.1,78.0,60.2,-2.8,'1111122,1111122,1111122' 
ADCP,ioos:station:wmo:42862:1,2014-12-15T10:04:00Z,27.5700,-92.3960,66.1,82.0,62.8,-3.6,'1111122,1111122,1111122' 
ADCP,ioos:station:wmo:42862:1,2014-12-15T11:04:00Z,27.5700,-92.3960,66.1,82.0,62.5,-3.4,'1111122,1111122,1111122' 
ADCP,ioos:station:wmo:42862:1,2014-12-15T12:04:00Z,27.5700,-92.3960,66.1,87.0,59.6,-6.1,'1111122,1111122,1111122' 
ADCP,ioos:station:wmo:42862:1,2014-12-15T13:04:00Z,27.5700,-92.3960,66.1,88.0,62.5,-7.0,'1111122,1111122,1111122' 
ADCP,ioos:station:wmo:42862:1,2014-12-15T14:04:00Z,27.5700,-92.3960,66.1,87.0,62.0,-5.8,'1111122,1111122,1111122' 
ADCP,ioos:station:wmo:42862:1,2014-12-15T15:04:00Z,27.5700,-92.3960,66.1,95.0,57.7,-6.8,'1111122,1111122,1111122' 
ADCP,ioos:station:wmo:42862:1,2014-12-15T16:04:00Z,27.5700,-92.3960,66.1,96.0,52.2,-7.1,'1111122,1111122,1111122' 
ADCP,ioos:station:wmo:42862:1,2014-12-15T17:24:00Z,27.5700,-92.3960,66.1,98.0,51.2,-6.9,'1111122,1111122,1111122' 
ADCP,ioos:station:wmo:42862:1,2014-12-15T18:04:00Z,27.5700,-92.3960,66.1,89.0,49.1,-6.6,'1111122,1111122,1111122' 
ADCP,ioos:station:wmo:42862:1,2014-12-15T19:04:00Z,27.5700,-92.3960,66.1,86.0,48.4,-8.0,'1111122,1111122,1111122' 
ADCP,ioos:station:wmo:42862:1,2014-12-15T20:24:00Z,27.5700,-92.3960,66.1,90.0,53.3,-3.4,'1111122,1111122,1111122' 
ADCP,ioos:station:wmo:42862:1,2014-12-15T21:04:00Z,27.5700,-92.3960,66.1,93.0,54.3,-4.4,'1111122,1111122,1111122' 
ADCP,ioos:station:wmo:42862:1,2014-12-15T22:04:00Z,27.5700,-92.3960,66.1,93.0,54.4,-4.6,'1111122,1111122,1111122' 
ADCP,ioos:station:wmo:42862:1,2014-12-15T23:04:00Z,27.5700,-92.3960,66.1,87.0,49.3,-6.2,'1111122,1111122,1111122' 
ADCP,ioos:station:wmo:42862:1,2014-12-16T01:04:00Z,27.5700,-92.3960,66.1,90.0,55.0,-7.3,'1111122,1111122,1111122' 
ADCP,ioos:station:wmo:42862:1,2014-12-16T02:04:00Z,27.5700,-92.3960,66.1,80.0,57.2,-9.3,'1111122,1111122,1111122' 
ADCP,ioos:station:wmo:42862:1,2014-12-16T03:04:00Z,27.5700,-92.3960,66.1,80.0,56.4,-8.7,'1111122,1111122,1111122' 
ADCP,ioos:station:wmo:42862:1,2014-12-16T04:04:00Z,27.5700,-92.3960,66.1,76.0,53.4,-5.6,'1111122,1111122,1111122' 
ADCP,ioos:station:wmo:42862:1,2014-12-16T05:04:00Z,27.5700,-92.3960,66.1,69.0,51.5,-5.4,'1111122,1111122,1111122' 
ADCP,ioos:station:wmo:42862:1,2014-12-16T05:24:00Z,27.5700,-92.3960,66.1,74.0,47.5,-5.9,'1111122,1111122,1111122' 
ADCP,ioos:station:wmo:42862:1,2014-12-16T06:44:00Z,27.5700,-92.3960,66.1,68.0,42.9,-6.1,'1111122,1111122,1111122' 
ADCP,ioos:station:wmo:42862:1,2014-12-16T07:14:00Z,27.5700,-92.3960,66.1,66.0,45.1,-2.3,'1111122,1111122,1111122' 
ADCP,ioos:station:wmo:42862:1,2014-12-16T21:04:00Z,27.5700,-92.3960,66.1,68.0,42.5,-2.6,'1111122,1111122,1111122' 
ADCP,ioos:station:wmo:42862:1,2014-12-16T22:04:00Z,27.5700,-92.3960,66.1,72.0,48.6,-0.6,'1111122,1111122,1111122' 
ADCP,ioos:station:wmo:42862:1,2014-12-16T23:04:00Z,27.5700,-92.3960,66.1,76.0,41.7,-5.7,'1111122,1111122,1111122' 
ADCP,ioos:station:wmo:42862:1,2014-12-17T00:04:00Z,27.5700,-92.3960,66.1,70.0,45.4,-5.7,'1111122,1111122,1111122' 
ADCP,ioos:station:wmo:42862:1,2014-12-17T01:04:00Z,27.5700,-92.3960,66.1,60.0,46.6,-6.2,'1111122,1111122,1111122' 
ADCP,ioos:station:wmo:42862:1,2014-12-17T02:04:00Z,27.5700,-92.3960,66.1,71.0,47.9,-6.4,'1111122,1111122,1111122' 
ADCP,ioos:station:wmo:42862:1,2014-12-17T03:04:00Z,27.5700,-92.3960,66.1,74.0,47.5,-9.5,'1111122,1111122,1111122' 
ADCP,ioos:station:wmo:42862:1,2014-12-17T04:04:00Z,27.5700,-92.3960,66.1,75.0,44.6,-9.2,'1111122,1111122,1111122' 
ADCP,ioos:station:wmo:42862:1,2014-12-17T06:04:00Z,27.5700,-92.3960,66.1,84.0,43.2,-6.9,'1111122,1111122,1111122' 
ADCP,ioos:station:wmo:42862:1,2014-12-17T07:04:00Z,27.5700,-92.3960,66.1,89.0,41.3,-8.2,'1111122,1111122,1111122' 
ADCP,ioos:station:wmo:42862:1,2014-12-17T08:04:00Z,27.5700,-92.3960,66.1,96.0,42.7,-6.4,'1111122,1111122,1111122' 
ADCP,ioos:station:wmo:42862:1,2014-12-17T09:04:00Z,27.5700,-92.3960,66.1,91.0,41.7,-3.7,'1111122,1111122,1111122' 
ADCP,ioos:station:wmo:42862:1,2014-12-17T10:04:00Z,27.5700,-92.3960,66.1,92.0,42.4,-1.4,'1111122,1111122,1111122' 
ADCP,ioos:station:wmo:42862:1,2014-12-17T12:04:00Z,27.5700,-92.3960,66.1,94.0,35.4,-3.0,'1111122,1111122,1111122' 
ADCP,ioos:station:wmo:42862:1,2014-12-17T13:04:00Z,27.5700,-92.3960,66.1,97.0,34.4,-3.2,'1111122,1111122,1111122' 
ADCP,ioos:station:wmo:42862:1,2014-12-17T13:44:00Z,27.5700,-92.3960,66.1,91.0,36.5,-2.4,'1111122,1111122,1111122' 
ADCP,ioos:station:wmo:42862:1,2014-12-17T15:04:00Z,27.5700,-92.3960,66.1,85.0,34.0,-6.2,'1111122,1111122,1111122' 
ADCP,ioos:station:wmo:42862:1,2014-12-17T16:04:00Z,27.5700,-92.3960,66.1,87.0,31.3,-6.2,'1111122,1111122,1111122' 
ADCP,ioos:station:wmo:42862:1,2014-12-17T17:04:00Z,27.5700,-92.3960,66.1,83.0,27.1,-7.1,'1111122,1111122,1111122' 
ADCP,ioos:station:wmo:42862:1,2014-12-17T18:04:00Z,27.5700,-92.3960,66.1,87.0,27.9,-5.6,'1111122,1111122,1111122' 
ADCP,ioos:station:wmo:42862:1,2014-12-17T19:24:00Z,27.5700,-92.3960,66.1,70.0,29.8,-4.4,'1111122,1111122,1111122' 
ADCP,ioos:station:wmo:42862:1,2014-12-17T20:24:00Z,27.5700,-92.3960,66.1,84.0,32.4,-5.4,'1111122,1111122,1111122' 
ADCP,ioos:station:wmo:42862:1,2014-12-17T20:44:00Z,27.5700,-92.3960,66.1,76.0,30.5,-4.4,'1111122,1111122,1111122' 
ADCP,ioos:station:wmo:42862:1,2014-12-18T03:54:00Z,27.5700,-92.3960,66.1,63.0,35.6,-3.7,'1111122,1111122,1111122' 
ADCP,ioos:station:wmo:42862:1,2014-12-18T05:04:00Z,27.5700,-92.3960,66.1,65.0,32.6,-3.4,'1111122,1111122,1111122' 
ADCP,ioos:station:wmo:42862:1,2014-12-18T06:04:00Z,27.5700,-92.3960,66.1,80.0,27.9,-3.7,'1111122,1111122,1111122' 
ADCP,ioos:station:wmo:42862:1,2014-12-18T07:04:00Z,27.5700,-92.3960,66.1,105.0,25.6,-3.5,'1111122,1111122,1111122' 
ADCP,ioos:station:wmo:42862:1,2014-12-18T08:04:00Z,27.5700,-92.3960,66.1,115.0,30.6,-2.8,'1111122,1111122,1111122' 
ADCP,ioos:station:wmo:42862:1,2014-12-18T09:04:00Z,27.5700,-92.3960,66.1,129.0,33.9,-4.8,'1111122,1111122,1111122' 
ADCP,ioos:station:wmo:42862:1,2014-12-18T10:04:00Z,27.5700,-92.3960,66.1,115.0,42.4,-6.7,'1111122,1111122,1111122' 
ADCP,ioos:station:wmo:42862:1,2014-12-18T12:04:00Z,27.5700,-92.3960,66.1,97.0,44.5,-2.3,'1111122,1111122,1111122' 
ADCP,ioos:station:wmo:42862:1,2014-12-18T19:24:00Z,27.5700,-92.3960,66.1,79.0,34.3,-2.5,'1111122,1111122,1111122' 
ADCP,ioos:station:wmo:42862:1,2014-12-19T03:04:00Z,27.5700,-92.3960,66.1,102.0,22.2,-2.3,'1111122,1111122,1111122' 
ADCP,ioos:station:wmo:42862:1,2014-12-19T04:04:00Z,27.5700,-92.3960,66.1,109.0,22.7,-2.1,'1111122,1111122,1111122' 
ADCP,ioos:station:wmo:42862:1,2014-12-19T05:04:00Z,27.5700,-92.3960,66.1,96.0,23.0,-2.5,'1111122,1111122,1111122' 
ADCP,ioos:station:wmo:42862:1,2014-12-19T06:04:00Z,27.5700,-92.3960,66.1,88.0,21.2,-2.4,'1111122,1111122,1111122' 
ADCP,ioos:station:wmo:42862:1,2014-12-19T07:04:00Z,27.5700,-92.3960,66.1,75.0,20.4,-1.1,'1111122,1111122,1111122' 
ADCP,ioos:station:wmo:42862:1,2014-12-19T08:04:00Z,27.5700,-92.3960,66.1,83.0,21.4,-7.8,'1111122,1111122,1111122' 
ADCP,ioos:station:wmo:42862:1,2014-12-19T09:04:00Z,27.5700,-92.3960,66.1,93.0,19.0,-5.2,'1111122,1111122,1111122' 
ADCP,ioos:station:wmo:42862:1,2014-12-19T10:04:00Z,27.5700,-92.3960,66.1,90.0,24.7,-2.7,'1111122,1111122,1111122' 
ADCP,ioos:station:wmo:42862:1,2014-12-19T11:04:00Z,27.5700,-92.3960,66.1,95.0,24.6,-3.4,'1111122,1111122,1111122' 
ADCP,ioos:station:wmo:42862:1,2014-12-19T12:04:00Z,27.5700,-92.3960,66.1,87.0,23.3,-4.9,'1111122,1111122,1111122' 
ADCP,ioos:station:wmo:42862:1,2014-12-19T13:04:00Z,27.5700,-92.3960,66.1,90.0,23.8,-6.6,'1111122,1111122,1111122' 
ADCP,ioos:station:wmo:42862:1,2014-12-19T13:44:00Z,27.5700,-92.3960,66.1,92.0,23.8,-2.5,'1111122,1111122,1111122' 